Time,TemperatureF,DewpointF,PressureIn,WindDirection,WindDirectionDegrees,WindSpeedMPH,WindSpeedGustMPH,Humidity,HourlyPrecipIn,Conditions,Clouds,dailyrainin,SoftwareType,DateUTC
2013-06-18 00:22:00,65.0,-99.9,-100.00,NW,318,12.0,18.0,-999,-99.99,,,-99.99,,2013-06-18 07:22:00,
2013-06-18 00:33:00,65.0,-99.9,-100.00,West,278,11.0,17.0,-999,-99.99,,,-99.99,,2013-06-18 07:33:00,
2013-06-18 00:43:00,65.0,-99.9,-100.00,West,278,11.0,17.0,-999,-99.99,,,-99.99,,2013-06-18 07:43:00,
2013-06-18 00:53:00,65.0,-99.9,-100.00,WNW,286,7.0,16.0,-999,-99.99,,,-99.99,,2013-06-18 07:53:00,
2013-06-18 01:02:00,65.0,-99.9,-100.00,WNW,286,7.0,16.0,-999,-99.99,,,-99.99,,2013-06-18 08:02:00,
2013-06-18 01:43:00,65.0,-99.9,-100.00,WNW,283,12.0,15.0,-999,-99.99,,,-99.99,,2013-06-18 08:43:00,
2013-06-18 01:52:00,65.0,-99.9,-100.00,West,274,7.0,19.0,-999,-99.99,,,-99.99,,2013-06-18 08:52:00,
2013-06-18 02:02:00,65.0,-99.9,-100.00,West,274,7.0,19.0,-999,-99.99,,,-99.99,,2013-06-18 09:02:00,
2013-06-18 02:43:00,64.0,-99.9,-100.00,WSW,255,14.0,18.0,-999,-99.99,,,-99.99,,2013-06-18 09:43:00,
2013-06-18 02:53:00,63.0,-99.9,-100.00,West,278,14.0,19.0,-999,-99.99,,,-99.99,,2013-06-18 09:53:00,
2013-06-18 03:00:00,62.0,-99.9,-100.00,WSW,247,9.0,14.0,-999,-99.99,,,-99.99,,2013-06-18 10:00:00,
2013-06-18 03:02:00,63.0,-99.9,-100.00,West,278,14.0,19.0,-999,-99.99,,,-99.99,,2013-06-18 10:02:00,
2013-06-18 03:33:00,62.0,-99.9,-100.00,WSW,247,9.0,14.0,-999,-99.99,,,-99.99,,2013-06-18 10:33:00,
2013-06-18 03:43:00,62.0,-99.9,-100.00,WSW,247,9.0,14.0,-999,-99.99,,,-99.99,,2013-06-18 10:43:00,
2013-06-18 03:53:00,62.0,-99.9,-100.00,WSW,247,9.0,14.0,-999,-99.99,,,-99.99,,2013-06-18 10:53:00,
2013-06-18 04:00:00,60.0,-99.9,-100.00,West,266,5.0,11.0,-999,-99.99,,,-99.99,,2013-06-18 11:00:00,
2013-06-18 04:43:00,60.0,-99.9,-100.00,West,266,5.0,11.0,-999,-99.99,,,-99.99,,2013-06-18 11:43:00,
2013-06-18 04:52:00,60.0,-99.9,-100.00,West,266,5.0,11.0,-999,-99.99,,,-99.99,,2013-06-18 11:52:00,
2013-06-18 05:43:00,60.0,-99.9,-100.00,WNW,283,5.0,11.0,-999,-99.99,,,-99.99,,2013-06-18 12:43:00,
2013-06-18 05:52:00,58.0,-99.9,-100.00,West,272,6.0,11.0,-999,-99.99,,,-99.99,,2013-06-18 12:52:00,
2013-06-18 06:00:00,59.0,-99.9,-100.00,SW,230,6.0,10.0,-999,-99.99,,,-99.99,,2013-06-18 13:00:00,
2013-06-18 06:02:00,58.0,-99.9,-100.00,West,272,6.0,11.0,-999,-99.99,,,-99.99,,2013-06-18 13:02:00,
2013-06-18 06:22:00,60.0,-99.9,-100.00,West,266,6.0,12.0,-999,-99.99,,,-99.99,,2013-06-18 13:22:00,
2013-06-18 06:34:00,60.0,-99.9,-100.00,West,266,6.0,12.0,-999,-99.99,,,-99.99,,2013-06-18 13:34:00,
2013-06-18 06:43:00,59.0,-99.9,-100.00,SW,230,6.0,10.0,-999,-99.99,,,-99.99,,2013-06-18 13:43:00,
2013-06-18 06:53:00,59.0,-99.9,-100.00,SW,230,6.0,10.0,-999,-99.99,,,-99.99,,2013-06-18 13:53:00,
2013-06-18 07:00:00,62.0,-99.9,-100.00,WNW,294,10.0,11.0,-999,-99.99,,,-99.99,,2013-06-18 14:00:00,
2013-06-18 07:43:00,62.0,-99.9,-100.00,WNW,294,10.0,11.0,-999,-99.99,,,-99.99,,2013-06-18 14:43:00,
2013-06-18 07:53:00,62.0,-99.9,-100.00,WNW,294,10.0,11.0,-999,-99.99,,,-99.99,,2013-06-18 14:53:00,
2013-06-18 08:00:00,61.0,-99.9,-100.00,WSW,249,4.0,14.0,-999,-99.99,,,-99.99,,2013-06-18 15:00:00,
2013-06-18 08:33:00,61.0,-99.9,-100.00,WSW,249,4.0,14.0,-999,-99.99,,,-99.99,,2013-06-18 15:33:00,
2013-06-18 08:43:00,61.0,-99.9,-100.00,WSW,249,4.0,14.0,-999,-99.99,,,-99.99,,2013-06-18 15:43:00,
2013-06-18 08:53:00,61.0,-99.9,-100.00,WSW,249,4.0,14.0,-999,-99.99,,,-99.99,,2013-06-18 15:53:00,
2013-06-18 09:23:00,61.0,-99.9,-100.00,WNW,301,9.0,13.0,-999,-99.99,,,-99.99,,2013-06-18 16:23:00,
2013-06-18 09:33:00,62.0,-99.9,-100.00,West,272,10.0,13.0,-999,-99.99,,,-99.99,,2013-06-18 16:33:00,
2013-06-18 09:43:00,62.0,-99.9,-100.00,West,272,10.0,13.0,-999,-99.99,,,-99.99,,2013-06-18 16:43:00,
2013-06-18 09:53:00,62.0,-99.9,-100.00,West,272,10.0,13.0,-999,-99.99,,,-99.99,,2013-06-18 16:53:00,
2013-06-18 10:00:00,65.0,-99.9,-100.00,WNW,286,10.0,14.0,-999,-99.99,,,-99.99,,2013-06-18 17:00:00,
2013-06-18 10:02:00,63.0,-99.9,-100.00,NW,320,6.0,9.0,-999,-99.99,,,-99.99,,2013-06-18 17:02:00,
2013-06-18 10:12:00,63.0,-99.9,-100.00,NW,320,6.0,9.0,-999,-99.99,,,-99.99,,2013-06-18 17:12:00,
2013-06-18 10:34:00,65.0,-99.9,-100.00,WNW,286,10.0,14.0,-999,-99.99,,,-99.99,,2013-06-18 17:34:00,
2013-06-18 10:43:00,65.0,-99.9,-100.00,WNW,286,10.0,14.0,-999,-99.99,,,-99.99,,2013-06-18 17:43:00,
2013-06-18 10:53:00,65.0,-99.9,-100.00,WNW,286,10.0,14.0,-999,-99.99,,,-99.99,,2013-06-18 17:53:00,
2013-06-18 11:00:00,62.0,-99.9,-100.00,WNW,283,12.0,12.0,-999,-99.99,,,-99.99,,2013-06-18 18:00:00,
2013-06-18 11:22:00,63.0,-99.9,-100.00,WNW,293,9.0,9.0,-999,-99.99,,,-99.99,,2013-06-18 18:22:00,
2013-06-18 11:33:00,62.0,-99.9,-100.00,WNW,283,12.0,12.0,-999,-99.99,,,-99.99,,2013-06-18 18:33:00,
2013-06-18 11:43:00,62.0,-99.9,-100.00,WNW,283,12.0,12.0,-999,-99.99,,,-99.99,,2013-06-18 18:43:00,
2013-06-18 11:53:00,62.0,-99.9,-100.00,WNW,283,12.0,12.0,-999,-99.99,,,-99.99,,2013-06-18 18:53:00,
2013-06-18 12:34:00,67.0,-99.9,-100.00,West,263,5.0,8.0,-999,-99.99,,,-99.99,,2013-06-18 19:34:00,
2013-06-18 12:43:00,67.0,-99.9,-100.00,West,263,5.0,8.0,-999,-99.99,,,-99.99,,2013-06-18 19:43:00,
2013-06-18 12:53:00,66.0,-99.9,-100.00,WSW,244,4.0,9.0,-999,-99.99,,,-99.99,,2013-06-18 19:53:00,
2013-06-18 13:00:00,70.0,-99.9,-100.00,WSW,238,6.0,9.0,-999,-99.99,,,-99.99,,2013-06-18 20:00:00,
2013-06-18 13:02:00,66.0,-99.9,-100.00,WSW,244,4.0,9.0,-999,-99.99,,,-99.99,,2013-06-18 20:02:00,
2013-06-18 13:33:00,70.0,-99.9,-100.00,WSW,238,6.0,9.0,-999,-99.99,,,-99.99,,2013-06-18 20:33:00,
2013-06-18 13:43:00,70.0,-99.9,-100.00,WSW,238,6.0,9.0,-999,-99.99,,,-99.99,,2013-06-18 20:43:00,
2013-06-18 13:53:00,70.0,-99.9,-100.00,WSW,238,6.0,9.0,-999,-99.99,,,-99.99,,2013-06-18 20:53:00,
2013-06-18 14:20:00,72.0,-99.9,-100.00,WNW,283,6.0,9.0,-999,-99.99,,,-99.99,,2013-06-18 21:20:00,
2013-06-18 14:33:00,73.0,-99.9,-100.00,WSW,248,7.0,9.0,-999,-99.99,,,-99.99,,2013-06-18 21:33:00,
2013-06-18 14:43:00,73.0,-99.9,-100.00,WSW,248,7.0,9.0,-999,-99.99,,,-99.99,,2013-06-18 21:43:00,
2013-06-18 14:53:00,73.0,-99.9,-100.00,WSW,248,7.0,9.0,-999,-99.99,,,-99.99,,2013-06-18 21:53:00,
2013-06-18 15:00:00,73.0,-99.9,-100.00,West,273,6.0,15.0,-999,-99.99,,,-99.99,,2013-06-18 22:00:00,
2013-06-18 15:02:00,72.0,-99.9,-100.00,WNW,283,6.0,9.0,-999,-99.99,,,-99.99,,2013-06-18 22:02:00,
2013-06-18 15:12:00,72.0,-99.9,-100.00,WNW,283,6.0,9.0,-999,-99.99,,,-99.99,,2013-06-18 22:12:00,
2013-06-18 15:34:00,73.0,-99.9,-100.00,West,273,6.0,15.0,-999,-99.99,,,-99.99,,2013-06-18 22:34:00,
2013-06-18 15:43:00,73.0,-99.9,-100.00,West,273,6.0,15.0,-999,-99.99,,,-99.99,,2013-06-18 22:43:00,
2013-06-18 15:53:00,73.0,-99.9,-100.00,West,273,6.0,15.0,-999,-99.99,,,-99.99,,2013-06-18 22:53:00,
2013-06-18 16:00:00,73.0,-99.9,-100.00,West,272,7.0,18.0,-999,-99.99,,,-99.99,,2013-06-18 23:00:00,
2013-06-18 16:49:00,73.0,-99.9,-100.00,West,272,7.0,18.0,-999,-99.99,,,-99.99,,2013-06-18 23:49:00,
2013-06-18 17:00:00,72.0,-99.9,-100.00,NW,308,7.0,24.0,-999,-99.99,,,-99.99,,2013-06-19 00:00:00,
2013-06-18 17:12:00,71.0,-99.9,-100.00,WSW,249,13.0,19.0,-999,-99.99,,,-99.99,,2013-06-19 00:12:00,
2013-06-18 17:22:00,70.0,-99.9,-100.00,West,276,14.0,19.0,-999,-99.99,,,-99.99,,2013-06-19 00:22:00,
2013-06-18 17:33:00,70.0,-99.9,-100.00,West,276,14.0,19.0,-999,-99.99,,,-99.99,,2013-06-19 00:33:00,
2013-06-18 17:43:00,72.0,-99.9,-100.00,NW,308,7.0,24.0,-999,-99.99,,,-99.99,,2013-06-19 00:43:00,
2013-06-18 17:53:00,72.0,-99.9,-100.00,NW,308,7.0,24.0,-999,-99.99,,,-99.99,,2013-06-19 00:53:00,
2013-06-18 18:10:00,70.0,-99.9,-100.00,West,277,13.0,20.0,-999,-99.99,,,-99.99,,2013-06-19 01:10:00,
2013-06-18 18:43:00,72.0,-99.9,-100.00,NW,317,9.0,18.0,-999,-99.99,,,-99.99,,2013-06-19 01:43:00,
2013-06-18 18:53:00,70.0,-99.9,-100.00,West,277,13.0,20.0,-999,-99.99,,,-99.99,,2013-06-19 01:53:00,
2013-06-18 19:00:00,65.0,-99.9,-100.00,West,265,14.0,19.0,-999,-99.99,,,-99.99,,2013-06-19 02:00:00,
2013-06-18 19:02:00,70.0,-99.9,-100.00,West,277,13.0,20.0,-999,-99.99,,,-99.99,,2013-06-19 02:02:00,
2013-06-18 19:21:00,68.0,-99.9,-100.00,SW,223,11.0,20.0,-999,-99.99,,,-99.99,,2013-06-19 02:21:00,
2013-06-18 19:33:00,65.0,-99.9,-100.00,West,265,14.0,19.0,-999,-99.99,,,-99.99,,2013-06-19 02:33:00,
2013-06-18 19:43:00,65.0,-99.9,-100.00,West,265,14.0,19.0,-999,-99.99,,,-99.99,,2013-06-19 02:43:00,
2013-06-18 19:52:00,65.0,-99.9,-100.00,West,265,14.0,19.0,-999,-99.99,,,-99.99,,2013-06-19 02:52:00,
2013-06-18 20:00:00,65.0,-99.9,-100.00,WSW,257,8.0,16.0,-999,-99.99,,,-99.99,,2013-06-19 03:00:00,
2013-06-18 20:33:00,65.0,-99.9,-100.00,WSW,257,8.0,16.0,-999,-99.99,,,-99.99,,2013-06-19 03:33:00,
2013-06-18 20:43:00,65.0,-99.9,-100.00,WSW,257,8.0,16.0,-999,-99.99,,,-99.99,,2013-06-19 03:43:00,
2013-06-18 20:53:00,65.0,-99.9,-100.00,WSW,257,8.0,16.0,-999,-99.99,,,-99.99,,2013-06-19 03:53:00,
2013-06-18 21:23:00,62.0,-99.9,-100.00,NW,316,8.0,16.0,-999,-99.99,,,-99.99,,2013-06-19 04:23:00,
2013-06-18 21:33:00,64.0,-99.9,-100.00,West,271,12.0,16.0,-999,-99.99,,,-99.99,,2013-06-19 04:33:00,
2013-06-18 21:43:00,64.0,-99.9,-100.00,West,271,12.0,16.0,-999,-99.99,,,-99.99,,2013-06-19 04:43:00,
2013-06-18 21:53:00,64.0,-99.9,-100.00,West,272,12.0,15.0,-999,-99.99,,,-99.99,,2013-06-19 04:53:00,
2013-06-18 22:01:00,62.0,-99.9,-100.00,SSW,206,5.0,12.0,-999,-99.99,,,-99.99,,2013-06-19 05:01:00,
2013-06-18 22:11:00,62.0,-99.9,-100.00,SSW,206,5.0,12.0,-999,-99.99,,,-99.99,,2013-06-19 05:11:00,
2013-06-18 22:52:00,59.0,-99.9,-100.00,WSW,255,9.0,12.0,-999,-99.99,,,-99.99,,2013-06-19 05:52:00,
2013-06-18 23:02:00,58.0,-99.9,-100.00,WNW,298,10.0,16.0,-999,-99.99,,,-99.99,,2013-06-19 06:02:00,
2013-06-18 23:12:00,58.0,-99.9,-100.00,WNW,298,10.0,16.0,-999,-99.99,,,-99.99,,2013-06-19 06:12:00,
2013-06-18 23:20:00,56.0,-99.9,-100.00,West,262,13.0,18.0,-999,-99.99,,,-99.99,,2013-06-19 06:20:00,
2013-06-18 23:22:00,58.0,-99.9,-100.00,WNW,298,10.0,16.0,-999,-99.99,,,-99.99,,2013-06-19 06:22:00,
2013-06-18 23:43:00,58.0,-99.9,-100.00,West,275,6.0,12.0,-999,-99.99,,,-99.99,,2013-06-19 06:43:00,
2013-06-18 23:52:00,58.0,-99.9,-100.00,WSW,252,11.0,12.0,-999,-99.99,,,-99.99,,2013-06-19 06:52:00,